When you browse on this site, cookies collect data to enhance your experience and personalize the content and advertising you see.
Visit our Privacy Policy to learn more. By continuing to use the site, you agree to this use of cookies and data.
  • In Österreich
  • Länderverzeichnis
  • Für 7 Tage
  • Wassertemperatur
  • Satellitenkarten
  • Wetterkarte
  • News
  • Widgets
  • user-avatar
    Anmelden

    Stündliche Wetter Rawson

    Heute, 26 Mai, Sonntag

    Zeit Temperatur Niederschläge Wind Luftdruck Luftfeuchtigkeit
    00:00 +10°C° 0 mm 6 m/S 755 mmHg 45%
    01:00 +10°C° 0 mm 7 m/S 756 mmHg 48%
    02:00 +9°C° 0 mm 7 m/S 756 mmHg 50%
    03:00 +9°C° 0 mm 7 m/S 757 mmHg 53%
    04:00 +8°C° 0 mm 7 m/S 757 mmHg 55%
    05:00 +8°C° 0 mm 6 m/S 757 mmHg 57%
    06:00 +8°C° 0 mm 6 m/S 758 mmHg 58%
    07:00 +7°C° 0 mm 6 m/S 758 mmHg 60%
    08:00 +7°C° 0 mm 5 m/S 759 mmHg 61%
    09:00 +8°C° 0 mm 5 m/S 759 mmHg 58%
    10:00 +10°C° 0 mm 4 m/S 759 mmHg 55%
    11:00 +11°C° 0 mm 4 m/S 760 mmHg 52%
    12:00 +12°C° 0 mm 2 m/S 760 mmHg 50%
    13:00 +12°C° 0 mm 1 m/S 759 mmHg 48%
    14:00 +12°C° 0 mm 0 m/S 759 mmHg 46%
    15:00 +12°C° 0 mm 1 m/S 759 mmHg 45%
    16:00 +12°C° 0 mm 1 m/S 759 mmHg 45%
    17:00 +12°C° 0 mm 2 m/S 759 mmHg 44%
    18:00 +12°C° 0 mm 2 m/S 759 mmHg 44%
    19:00 +10°C° 0 mm 2 m/S 759 mmHg 44%
    20:00 +10°C° 0 mm 3 m/S 758 mmHg 45%
    21:00 +10°C° 0 mm 3 m/S 758 mmHg 45%
    22:00 +10°C° 0 mm 4 m/S 758 mmHg 45%
    23:00 +10°C° 0 mm 4 m/S 758 mmHg 45%

    Morgen, 27 Mai, Montag

    Zeit Temperatur Niederschläge Wind Luftdruck Luftfeuchtigkeit
    00:00 +10°C° 0 mm 4 m/S 757 mmHg 49%
    01:00 +10°C° 0 mm 4 m/S 757 mmHg 52%
    02:00 +10°C° 0 mm 4 m/S 757 mmHg 56%
    03:00 +8°C° 0 mm 4 m/S 756 mmHg 56%
    04:00 +8°C° 0 mm 4 m/S 756 mmHg 56%
    05:00 +8°C° 0 mm 4 m/S 755 mmHg 56%
    06:00 +8°C° 0 mm 4 m/S 755 mmHg 56%
    07:00 +7°C° 0 mm 4 m/S 755 mmHg 55%
    08:00 +7°C° 0 mm 4 m/S 755 mmHg 55%
    09:00 +9°C° 0 mm 5 m/S 755 mmHg 51%
    10:00 +10°C° 0 mm 6 m/S 755 mmHg 47%
    11:00 +13°C° 0 mm 6 m/S 755 mmHg 43%
    12:00 +12°C° 0 mm 7 m/S 755 mmHg 42%
    13:00 +12°C° 0 mm 7 m/S 755 mmHg 41%
    14:00 +14°C° 0 mm 7 m/S 754 mmHg 40%
    15:00 +12°C° 0 mm 7 m/S 754 mmHg 40%
    16:00 +13°C° 0 mm 6 m/S 754 mmHg 40%
    17:00 +12°C° 0 mm 5 m/S 754 mmHg 41%
    18:00 +11°C° 0 mm 6 m/S 755 mmHg 40%
    19:00 +10°C° 0 mm 6 m/S 755 mmHg 40%
    20:00 +10°C° 0 mm 7 m/S 755 mmHg 39%
    21:00 +9°C° 0 mm 7 m/S 756 mmHg 41%
    22:00 +8°C° 0 mm 6 m/S 756 mmHg 43%
    23:00 +8°C° 0 mm 6 m/S 757 mmHg 45%

    übermorgen, 28 Mai, Dienstag

    Zeit Temperatur Niederschläge Wind Luftdruck Luftfeuchtigkeit
    00:00 +7°C° 0 mm 6 m/S 757 mmHg 47%
    01:00 +7°C° 0 mm 6 m/S 757 mmHg 50%
    02:00 +7°C° 0 mm 6 m/S 758 mmHg 52%
    03:00 +5°C° 0 mm 6 m/S 758 mmHg 55%
    04:00 +5°C° 0 mm 6 m/S 758 mmHg 59%
    05:00 +5°C° 0 mm 6 m/S 759 mmHg 62%
    06:00 +5°C° 0 mm 5 m/S 759 mmHg 64%
    07:00 +5°C° 0 mm 5 m/S 760 mmHg 66%
    08:00 +5°C° 0 mm 5 m/S 760 mmHg 68%
    09:00 +5°C° 0 mm 6 m/S 761 mmHg 65%
    10:00 +7°C° 0 mm 6 m/S 761 mmHg 62%
    11:00 +8°C° 0 mm 7 m/S 762 mmHg 59%
    12:00 +8°C° 0.4 mm 7 m/S 762 mmHg 60%
    13:00 +8°C° 0.4 mm 7 m/S 762 mmHg 61%
    14:00 +8°C° 0.4 mm 7 m/S 762 mmHg 62%
    15:00 +8°C° 0.1 mm 7 m/S 762 mmHg 60%
    16:00 +6°C° 0.1 mm 7 m/S 763 mmHg 58%
    17:00 +6°C° 0.1 mm 7 m/S 763 mmHg 56%
    18:00 +5°C° 0 mm 6 m/S 764 mmHg 56%
    19:00 +5°C° 0 mm 6 m/S 764 mmHg 56%
    20:00 +5°C° 0 mm 6 m/S 765 mmHg 56%
    21:00 +5°C° 0 mm 5 m/S 765 mmHg 57%
    22:00 +5°C° 0 mm 5 m/S 765 mmHg 58%
    23:00 +5°C° 0 mm 5 m/S 766 mmHg 59%

    29 Mai, Mittwoch

    Zeit Temperatur Niederschläge Wind Luftdruck Luftfeuchtigkeit
    00:00 +3°C° 0 mm 5 m/S 766 mmHg 59%
    01:00 +4°C° 0 mm 4 m/S 766 mmHg 59%
    02:00 +4°C° 0 mm 4 m/S 766 mmHg 60%
    03:00 +4°C° 0 mm 4 m/S 766 mmHg 60%
    04:00 +3°C° 0 mm 4 m/S 766 mmHg 60%
    05:00 +3°C° 0 mm 4 m/S 765 mmHg 60%
    06:00 +3°C° 0 mm 4 m/S 766 mmHg 60%
    07:00 +3°C° 0 mm 4 m/S 766 mmHg 60%
    08:00 +3°C° 0 mm 3 m/S 766 mmHg 61%
    09:00 +4°C° 0 mm 3 m/S 766 mmHg 57%
    10:00 +5°C° 0 mm 3 m/S 766 mmHg 53%
    11:00 +7°C° 0 mm 3 m/S 767 mmHg 48%
    12:00 +8°C° 0 mm 3 m/S 766 mmHg 47%
    13:00 +8°C° 0 mm 3 m/S 766 mmHg 45%
    14:00 +9°C° 0 mm 3 m/S 766 mmHg 44%
    15:00 +8°C° 0 mm 3 m/S 766 mmHg 46%
    16:00 +8°C° 0 mm 3 m/S 766 mmHg 47%
    17:00 +7°C° 0 mm 3 m/S 766 mmHg 49%
    18:00 +7°C° 0 mm 3 m/S 766 mmHg 51%
    19:00 +7°C° 0 mm 3 m/S 766 mmHg 53%
    20:00 +5°C° 0 mm 3 m/S 767 mmHg 54%
    21:00 +5°C° 0 mm 3 m/S 767 mmHg 57%
    22:00 +5°C° 0 mm 3 m/S 767 mmHg 59%
    23:00 +4°C° 0 mm 3 m/S 767 mmHg 61%

    30 Mai, Donnerstag

    Zeit Temperatur Niederschläge Wind Luftdruck Luftfeuchtigkeit
    00:00 +5°C° 0 mm 2 m/S 767 mmHg 63%
    01:00 +5°C° 0 mm 2 m/S 767 mmHg 66%
    02:00 +4°C° 0 mm 2 m/S 767 mmHg 68%
    03:00 +5°C° 0 mm 1 m/S 767 mmHg 69%
    04:00 +5°C° 0 mm 1 m/S 766 mmHg 70%
    05:00 +4°C° 0 mm 1 m/S 766 mmHg 72%
    06:00 +4°C° 0 mm 1 m/S 766 mmHg 72%
    07:00 +4°C° 0 mm 1 m/S 766 mmHg 72%
    08:00 +4°C° 0 mm 1 m/S 766 mmHg 72%
    09:00 +6°C° 0 mm 1 m/S 766 mmHg 64%
    10:00 +6°C° 0 mm 2 m/S 766 mmHg 57%
    11:00 +8°C° 0 mm 3 m/S 765 mmHg 49%
    12:00 +8°C° 0 mm 4 m/S 765 mmHg 48%
    13:00 +8°C° 0 mm 5 m/S 764 mmHg 47%
    14:00 +9°C° 0 mm 6 m/S 763 mmHg 46%
    15:00 +9°C° 0 mm 6 m/S 763 mmHg 48%
    16:00 +8°C° 0 mm 6 m/S 762 mmHg 51%
    17:00 +8°C° 0 mm 5 m/S 762 mmHg 54%
    18:00 +8°C° 0 mm 6 m/S 761 mmHg 54%
    19:00 +6°C° 0 mm 7 m/S 761 mmHg 53%
    20:00 +6°C° 0 mm 8 m/S 761 mmHg 53%
    21:00 +6°C° 0 mm 9 m/S 760 mmHg 54%
    22:00 +6°C° 0 mm 9 m/S 759 mmHg 55%
    23:00 +6°C° 0 mm 9 m/S 759 mmHg 56%

    31 Mai, Freitag

    Zeit Temperatur Niederschläge Wind Luftdruck Luftfeuchtigkeit
    00:00 +6°C° 0 mm 10 m/S 758 mmHg 61%
    01:00 +6°C° 0 mm 10 m/S 757 mmHg 65%
    02:00 +5°C° 0 mm 10 m/S 756 mmHg 69%
    03:00 +5°C° 0 mm 10 m/S 755 mmHg 70%
    04:00 +5°C° 0 mm 9 m/S 755 mmHg 72%
    05:00 +5°C° 0 mm 9 m/S 754 mmHg 74%
    06:00 +5°C° 0 mm 8 m/S 754 mmHg 74%
    07:00 +5°C° 0 mm 7 m/S 753 mmHg 75%
    08:00 +5°C° 0 mm 6 m/S 753 mmHg 76%
    09:00 +8°C° 0 mm 5 m/S 753 mmHg 69%
    10:00 +9°C° 0 mm 5 m/S 753 mmHg 62%
    11:00 +12°C° 0 mm 4 m/S 753 mmHg 55%
    12:00 +10°C° 0 mm 6 m/S 753 mmHg 59%
    13:00 +10°C° 0 mm 7 m/S 753 mmHg 62%
    14:00 +10°C° 0 mm 9 m/S 753 mmHg 66%
    15:00 +8°C° 0.2 mm 9 m/S 754 mmHg 66%
    16:00 +7°C° 0.2 mm 10 m/S 755 mmHg 66%
    17:00 +7°C° 0.2 mm 10 m/S 756 mmHg 66%
    18:00 +7°C° 0 mm 10 m/S 757 mmHg 66%
    19:00 +6°C° 0 mm 10 m/S 758 mmHg 66%
    20:00 +6°C° 0 mm 10 m/S 759 mmHg 65%
    21:00 +6°C° 0 mm 9 m/S 759 mmHg 66%
    22:00 +5°C° 0 mm 9 m/S 760 mmHg 67%
    23:00 +5°C° 0 mm 9 m/S 760 mmHg 67%
    Mehr zeigen